Location: Unspecified
(0.0000°N, 0.0000°E)
Time: 05:55:39
(UTC+00:00)

Tiros 1 - Pass Details

Date: 03 October 2020
Orbit: 630 x 663 km, 48.4° (Epoch: 28 October)

Event Time Altitude Azimuth Distance (km) Brightness Sun altitude
Rises 10:07:22 0° 230° (SW) 2,911 10.3 64.3°
Reaches altitude 10° 10:09:46 10° 237° (WSW) 2,003 9.6 64.9°
Maximum altitude 10:14:09 43° 309° (NW) 881 8.2 66.0°
Drops below altitude 10° 10:18:32 10° 21° (NNE) 2,006 9.9 67.0°
Sets 10:20:57 0° 27° (NNE) 2,916 10.6 67.6°
